Location: Poughquag
(41.6090°N, 73.6820°W)
Time: 03:35:36
(UTC-04:00)

Transit 4A - Pass Details

Date: 29 May 2020
Orbit: 866 x 978 km, 66.8° (Epoch: 06 July)

Event Time Altitude Azimuth Distance (km) Brightness Sun altitude
Rises 11:59:28 0° 327° (NNW) 3,569 10.7 67.3°
Reaches altitude 10° 12:01:59 10° 326° (NW) 2,639 10.2 67.5°
Maximum altitude 12:08:05 70° 244° (WSW) 1,005 9.4 68.1°
Drops below altitude 10° 12:14:21 10° 162° (SSE) 2,693 10.8 68.6°
Sets 12:16:55 0° 160° (SSE) 3,646 11.3 68.8°
